Ontario, CA

6:56 PM PST on February 09, 2016 (GMT -0800)
Ontario International

Weather History for KONT - January, 2013

Change the Weather History Date:

Monday, January 28, 2013

  Actual Average Record
Temperature  
Mean Temperature 49 °F 54 °F  
Max Temperature 58 °F 65 °F 78 °F (2012)
Min Temperature 40 °F 44 °F 36 °F (1999)
Degree Days  
Heating Degree Days 16 11  
Month to date heating degree days 318 308  
Since 1 July heating degree days 785 868  
Cooling Degree Days 0 0  
Month to date cooling degree days 1 0  
Year to date cooling degree days 1 0  
Moisture  
Dew Point 35 °F    
Average Humidity 65    
Maximum Humidity 92    
Minimum Humidity 38    
Precipitation  
Precipitation 0.00 in 0.06 in 0.42 in (2008)
Month to date precipitation 1.13 3.05  
Year to date precipitation 1.13 3.05  
Since 1 July precipitation 3.90  
Snow  
Snow 0.00 in - - ()
Month to date snowfall 0.0  
Year to date snowfall 0.0  
Snow Depth 0.00 in    
Sea Level Pressure  
Sea Level Pressure 30.08 in    
Wind  
Wind Speed 2 mph (SE)    
Max Wind Speed 13 mph    
Max Gust Speed 16 mph    
Visibility 10 miles    
Events Fog    
T = Trace of Precipitation, MM = Missing Value Source: NWS Daily Summary

Daily Weather History Graph

Daily Weather History Graph

Search for Another Location

Airport or City:

Trip Planner

Search our weather history database for the weather conditions in past years. The results will help you decide how hot, cold, wet, or windy it might be!

Date:

Astronomy

Jan. 28, 2013 Rise Set
Actual Time 6:49 AM PST 5:17 PM PST
Civil Twilight 6:23 AM PST 5:43 PM PST
Nautical Twilight 5:53 AM PST 6:13 PM PST
Astronomical Twilight 5:23 AM PST 6:43 PM PST
Moon 7:08 PM PST (1/28) 7:24 AM PST (1/28)
Length of Visible Light 11h 20m
Length of Day
10h 27m
Full, 97% of the Moon is Illuminated
Jan 28
Full
Feb 3
Last Quarter
Feb 9
New
Feb 17
First Quarter
Feb 25
Full

Hourly Weather History & Observations

Time (PST) Temp. Windchill Dew Point Humidity Pressure Visibility Wind Dir Wind Speed Gust Speed Precip Events Conditions
12:24 AM 44.6 °F 42.2 °F 39.2 °F 81% 30.01 in 10.0 mi East 4.6 mph - N/A   Mostly Cloudy
12:53 AM 44.1 °F - 39.9 °F 85% 30.01 in 10.0 mi Calm Calm - N/A   Mostly Cloudy
1:11 AM 44.6 °F 43.1 °F 39.2 °F 81% 30.01 in 10.0 mi ENE 3.5 mph - N/A   Mostly Cloudy
1:53 AM 44.1 °F - 39.9 °F 85% 30.03 in 10.0 mi Calm Calm - N/A   Scattered Clouds
2:09 AM 42.8 °F 41.1 °F 39.2 °F 87% 30.03 in 10.0 mi East 3.5 mph - N/A   Mostly Cloudy
2:18 AM 42.8 °F 39.3 °F 39.2 °F 87% 30.03 in 10.0 mi ESE 5.8 mph - N/A   Scattered Clouds
2:53 AM 42.1 °F - 37.9 °F 85% 30.03 in 10.0 mi Calm Calm - N/A   Scattered Clouds
3:53 AM 43.0 °F - 39.0 °F 86% 30.04 in 10.0 mi Calm Calm - N/A   Scattered Clouds
4:53 AM 41.0 °F - 37.0 °F 86% 30.04 in 10.0 mi Calm Calm - N/A   Scattered Clouds
5:53 AM 41.0 °F 39.0 °F 37.0 °F 86% 30.04 in 10.0 mi East 3.5 mph - N/A   Scattered Clouds
6:53 AM 39.9 °F - 37.0 °F 89% 30.07 in 10.0 mi Calm Calm - N/A Fog Scattered Clouds
7:53 AM 43.0 °F - 37.9 °F 82% 30.08 in 10.0 mi Calm Calm - N/A   Scattered Clouds
8:53 AM 46.0 °F - 39.9 °F 79% 30.08 in 10.0 mi Calm Calm - N/A   Scattered Clouds
9:53 AM 48.0 °F - 39.0 °F 71% 30.11 in 10.0 mi Calm Calm - N/A   Scattered Clouds
10:53 AM 51.1 °F - 34.0 °F 52% 30.11 in 10.0 mi Calm Calm - N/A   Scattered Clouds
11:53 AM 53.1 °F - 32.0 °F 45% 30.09 in 10.0 mi SSW 6.9 mph - N/A   Scattered Clouds
12:53 PM 54.0 °F - 30.0 °F 40% 30.08 in 10.0 mi SW 4.6 mph - N/A   Scattered Clouds
1:53 PM 55.0 °F - 32.0 °F 42% 30.07 in 10.0 mi Variable 3.5 mph - N/A   Scattered Clouds
2:53 PM 55.9 °F - 30.0 °F 37% 30.06 in 10.0 mi Variable 4.6 mph - N/A   Scattered Clouds
3:53 PM 57.9 °F - 23.0 °F 26% 30.07 in 10.0 mi Calm Calm - N/A   Mostly Cloudy
4:53 PM 55.9 °F - 23.0 °F 28% 30.08 in 10.0 mi Variable 4.6 mph - N/A   Mostly Cloudy
5:53 PM 52.0 °F - 33.1 °F 49% 30.09 in 10.0 mi SW 9.2 mph - N/A   Mostly Cloudy
6:53 PM 50.0 °F - 33.1 °F 52% 30.13 in 10.0 mi SSW 4.6 mph - N/A   Scattered Clouds
7:53 PM 48.9 °F - 33.1 °F 54% 30.14 in 10.0 mi Calm Calm - N/A   Partly Cloudy
8:53 PM 46.0 °F - 34.0 °F 63% 30.16 in 10.0 mi Calm Calm - N/A   Partly Cloudy
9:53 PM 46.0 °F - 34.0 °F 63% 30.17 in 10.0 mi Calm Calm - N/A   Scattered Clouds
10:53 PM 46.0 °F - 32.0 °F 58% 30.17 in 10.0 mi Calm Calm - N/A   Mostly Cloudy
11:53 PM 43.0 °F - 32.0 °F 65% 30.18 in 10.0 mi Calm Calm - N/A   Mostly Cloudy